sat.trackr.live / text

‹ back to catalog

STRIX-1

NORAD 53815 · 2022-113A

PAYLOAD ACTIVE UNKNOWN

§ Identity

Operator
Country
JPN
Launch date
2022-09-15
Launch site
RLLB
Launch vehicle
Mass (kg)
RCS (m²)

External: N2YO · Heavens-Above · Gunter

§ Orbital elements

Epoch: 2026-09-20T23:27:00.849024Z

Period
93.27 min
Inclination
97.4392°
Eccentricity
0.0002499
Mean motion
15.43833617 rev/d
Perigee alt
433.1 km
Apogee alt
436.5 km
Semi-major
6,812.9 km
B*
4.1779e-4
RAAN
327.9364°
Arg perigee
229.5286°
Mean anomaly
130.5744°
Rev number
22,220

§ Raw data

STRIX-11 53815U 22113A   26263.97709316  .00018869  00000+0  41779-3 0  99942 53815  97.4392 327.9364 0002499 229.5286 130.5744 15.43833617222203

JSON: /api/v1/satellites/53815 · /tle

For live sub-satellite position, see the globe view (requires WebGL).

§ Visibility from observer

Set your observer location to see the next 7 days of passes ≥ 10°. The values pass through the URL so the page stays shareable.

No JS? Fill the form by hand. The geolocation button needs JavaScript.